Location: ?
(35.4554°N, 139.3092°E)
Time: 21:19:42
(UTC+00:00)

ATLAS 5 CENTAUR R/B - Pass Details

Date: 21 April 2021
Orbit: 516 x 1141 km, 63.3° (Epoch: 02 May)

Event Time Altitude Azimuth Distance (km) Brightness Sun altitude
Rises 16:56:32 0° 326° (NNW) 3,382 5.5 -32.7°
Reaches altitude 10° 16:58:51 10° 325° (NW) 2,534 4.8 -32.4°
Enters shadow 17:01:04 25° 322° (NW) 1,767 3.9 -32.1°
